AirNav   ProFlight Series 2 Aviation Headset
 
 982 users online  

PA43 Foley Heliport
Callery, Pennsylvania, USA

GOING TO CALLERY?


FAA INFORMATION EFFECTIVE 18 JUNE 2020

Location

FAA Identifier: PA43
Lat/Long: 40-44-10.2000N 080-02-22.5400W
40-44.170000N 080-02.375667W
40.7361667,-80.0395944
(estimated)
Elevation: 1037 ft. / 316 m (estimated)
Time zone: UTC -4 (UTC -5 during Standard Time)
Zip code: 16046

Heliport Operations

Heliport use: Private use. Permission required prior to landing
Activation date: 10/2018
Control tower: no
ARTCC: CLEVELAND CENTER
FSS: ALTOONA FLIGHT SERVICE STATION
Attendance: 
Wind indicator: yes
Segmented circle: no

Heliport Communications

WX AWOS-3PT at BTP (5 nm NE): 121.450 (724-586-6434)
WX AWOS-3PT at PJC (7 nm NW): 118.45 (724-452-5304)
WX AWOS-3PT at BVI (16 nm W): 118.35 (724-843-1024)
WX AWOS-A at 42PN (17 nm S): PHONE 412-442-2213
WX ASOS at PIT (17 nm SW): PHONE 412-472-0145

Nearby radio navigation aids

VOR radial/distance  VOR name  Freq  Var
EWCr132/9.5ELLWOOD CITY VOR/DME115.8008W
AGCr009/27.5ALLEGHENY VOR/DME110.0009W
CIPr233/36.1CLARION VOR/DME112.9006W
HLGr047/37.4WHEELING VOR/DME112.2007W

 
NDB name  Hdg/Dist  Freq  Var  ID
CASTLE144/24.227209WUCP ..- -.-. .--.

Heliport Services

Runway Information

Helipad H1

Dimensions: 40 x 40 ft. / 12 x 12 m
Surface: asphalt/concrete, in excellent condition
Runway edge lights: FLD
Latitude: 40-44.170000N
Longitude: 080-02.375667W
Elevation: 1037.0 ft.
Traffic pattern: leftleft

Heliport Ownership and Management from official FAA records

Ownership: Privately-owned
Owner: FOLEY AVIATION, LLC
218 KLINE AVE.
EVANS CITY, PA 16033
Phone 412-906-1654
Manager: MIKE FOLEY
218 KLINE AVE.
EVANS CITY, PA 16033
Phone 412-906-1654

Heliport Operational Statistics

Aircraft based on the field: 1
Helicopters: 1
    

Additional Remarks

OWNER REQ ARPT BE CHARTED.

Instrument Procedures

There are no published instrument procedures at PA43.

Some nearby airports with instrument procedures:

KBTP - Pittsburgh/Butler Regional Airport (5 nm NE)
KPJC - Zelienople Municipal Airport (7 nm NW)
KBVI - Beaver County Airport (16 nm W)
KPIT - Pittsburgh International Airport (17 nm SW)
6P7 - McVille Airport (20 nm E)
 
Loc | Ops | Rwys | IFR | FBO | Links
Com | Nav | Svcs | Stats | Notes
Aerial photo
No photo
 
Airport distance calculator
Flying to Foley Heliport? Find the distance to fly.

From to PA43

Sunrise and sunset
Times for 06-Jul-2020
 Local
(UTC-4)
 Zulu
(UTC)
Morning civil twilight05:2409:24
Sunrise05:5709:57
Sunset20:5300:53
Evening civil twilight21:2601:26

Current date and time
Zulu (UTC)  07-Jul-2020 00:28:14
Local (UTC-4)  06-Jul-2020 20:28:14
 
METAR
KBTP 
4nm NE 
062356Z AUTO 00000KT 10SM CLR 29/17 A3002 RMK AO2 SLP161 6//// T02940172 10339 20294 53000 PNO $
KBVI 
16nm W 
070015Z AUTO 00000KT 10SM CLR 29/16 A3002 RMK AO2 T02860164
KPIT 
18nm SW 
062351Z 33009KT 10SM FEW050 SCT250 32/12 A3000 RMK AO2 SLP154 T03170122 10344 20317 56002
TAF
KBVI 
16nm W 
061737Z 0618/0718 28004KT P6SM SKC FM070000 35003KT P6SM SKC FM071700 21004KT P6SM SCT100
KPIT 
18nm SW 
062057Z 0621/0724 30010KT P6SM SCT250 FM070000 00000KT P6SM SKC FM072000 20003KT P6SM SCT050 PROB30 0720/0724 P6SM -TSRA BKN050CB
NOTAMs
Click for the latest NOTAMs
NOTAMs are issued by the DoD/FAA and will open in a separate window not controlled by AirNav.

 

 
 

Would you like to see your business listed on this page?

 If your business provides an interesting product or service to pilots, flight crews, aircraft, or users of the Foley Heliport, you should consider listing it here.  To start the listing process, click on the button below
 
Add a business
 

Other Pages about Foley Heliport

Update a link
 
Copyright © AirNav, LLC. All rights reserved. Privacy Policy  Contact